sat.trackr.live / text

‹ back to catalog

STARLINK-11338 [DTC]

NORAD 61534 · 2024-184C

PAYLOAD ACTIVE UNKNOWN

§ Identity

Operator
Country
US
Launch date
2024-10-15
Launch site
AFWTR
Launch vehicle
Mass (kg)
RCS (m²)

Purposes: comms

External: N2YO · Heavens-Above · Gunter

§ Orbital elements

Epoch: 2026-05-25T04:47:04.125120Z

Period
91.74 min
Inclination
53.1612°
Eccentricity
0.0000788
Mean motion
15.69710308 rev/d
Perigee alt
359.2 km
Apogee alt
360.3 km
Semi-major
6,737.9 km
B*
1.1808e-5
RAAN
219.1267°
Arg perigee
99.3332°
Mean anomaly
260.7775°
Rev number
9,243

§ Raw data

STARLINK-11338 [DTC]1 61534U 24184C   26145.19935330  .00000843  00000+0  11808-4 0  99952 61534  53.1612 219.1267 0000788  99.3332 260.7775 15.69710308 92431

JSON: /api/v1/satellites/61534 · /tle

For live sub-satellite position, see the globe view (requires WebGL).

§ Visibility from observer

Set your observer location to see the next 7 days of passes ≥ 10°. The values pass through the URL so the page stays shareable.

No JS? Fill the form by hand. The geolocation button needs JavaScript.